Location: Novo Ouro Preto
(19.8840°S, 43.9844°W)
Time: 09:51:30
(UTC+00:00)

Cosmos 1891 Rocket - Pass Details

Date: 18 September 2020
Orbit: 933 x 1019 km, 82.9° (Epoch: 21 October)

Event Time Altitude Azimuth Distance (km) Brightness Sun altitude
Rises 21:34:08 0° 181° (S) 3,765 7.6 -10.9°
Reaches altitude 10° 21:36:44 10° 178° (S) 2,802 6.9 -11.5°
Maximum altitude 21:43:09 69° 95° (E) 1,063 4.5 -13.0°
Drops below altitude 10° 21:49:23 10° 12° (NNE) 2,723 6.7 -14.5°
Sets 21:51:52 0° 9° (N) 3,652 7.4 -15.1°
